Location: Newark
(34.0131°N, 4.3314°W)
Time: 18:54:10
(UTC+00:00)

A-11 Canister half - Pass Details

Date: 24 October 2019
Orbit: 1514 x 1685 km, 47.2° (Epoch: 21 November)

Event Time Altitude Azimuth Distance (km) Brightness Sun altitude
Rises 00:05:59 0° 222° (SW) 4,926 - -67.5°
Reaches altitude 10° 00:09:11 10° 220° (SW) 3,935 - -67.5°
Maximum altitude 00:19:13 71° 138° (SE) 1,732 - -67.2°
Drops below altitude 10° 00:29:02 10° 57° (ENE) 3,848 - -66.7°
Exits shadow 00:30:39 - 56° (NE) 4,353 11.6 -66.6°
Sets 00:32:06 0° 55° (NE) 4,813 11.9 -66.5°
